Theta_e
320 319 316 314 311 310 310 310 310 310 311 311 311 311 310 311 311 311 311 311 311 311 310 310 311 311 312 312 312 310 310 311 312 313 316 319 326 323 320 322 324 323 322 322 322 322 321 320 320 320 318 317 317 316 316 315 315 315 315 316 315 315 314 314 314 314 314 314 314 313 312 313 312 312 312 312 313 312 312 312 312 312 311 311 311
320 317 315 312 310 309 309 309 309 309 310 310 310 311 310 310 310 310 310 310 310 309 310 310 309 309 310 310 308 307 307 306 307 311 313 316 320 324 317 319 322 323 322 322 322 322 320 321 320 319 319 318 317 316 315 315 314 314 314 314 314 313 313 313 313 313 313 313 312 312 312 312 312 311 311 312 311 311 312 311 311 311 311 310 310
318 316 315 311 309 308 308 307 307 308 309 309 309 310 310 310 310 309 310 309 308 308 309 308 308 308 307 308 307 306 306 306 305 308 311 312 314 315 318 315 319 322 323 321 321 320 320 320 320 319 319 318 317 317 316 315 314 314 314 314 313 313 312 313 313 312 312 312 311 311 311 311 310 311 311 310 310 311 311 310 310 310 310 310 310
318 315 313 311 309 307 306 307 307 306 308 308 308 308 308 308 308 308 308 307 307 307 307 307 306 306 306 305 305 305 305 305 305 305 306 308 309 311 313 314 313 318 321 322 320 319 320 320 319 319 319 318 317 317 316 315 314 314 314 313 313 312 312 311 311 311 311 311 310 310 311 310 310 310 310 309 310 310 311 310 310 309 309 309 309
316 315 312 311 309 307 305 306 306 306 306 306 306 306 306 306 305 305 305 305 305 305 305 305 304 303 302 302 303 303 303 303 303 303 304 305 305 306 308 309 312 310 314 318 320 319 318 319 318 319 320 318 317 317 316 315 314 314 314 313 313 312 312 311 310 310 310 311 310 309 309 309 309 309 309 309 310 310 309 309 309 309 308 308 308
316 314 312 310 308 306 306 305 304 305 305 306 306 306 306 305 304 305 304 305 305 304 304 303 301 301 301 300 301 301 302 301 301 300 299 301 302 304 305 306 307 310 312 313 317 319 317 318 319 318 318 316 316 318 316 316 315 314 314 314 313 312 312 311 310 310 310 310 309 309 309 309 309 308 308 308 308 309 308 308 308 308 308 308 308
315 313 310 310 308 306 305 304 303 304 304 305 306 305 306 305 305 305 304 304 303 303 304 302 301 300 299 299 299 299 300 299 299 301 300 301 302 302 302 304 305 306 307 311 307 313 318 317 316 316 316 316 315 316 315 314 315 313 313 313 313 312 311 310 311 309 309 309 309 308 308 308 308 308 307 307 308 308 308 307 308 307 307 307 308
314 313 311 310 308 306 305 303 303 303 304 304 305 305 305 304 305 305 303 302 302 302 302 301 300 299 299 298 297 298 298 298 298 298 296 298 300 299 300 301 302 303 302 306 309 311 314 318 317 316 316 315 315 315 315 315 314 314 313 312 312 312 311 310 309 309 308 308 307 308 308 307 308 307 307 307 307 307 307 306 307 307 306 307 307
314 313 311 310 309 307 304 302 302 302 303 303 304 305 304 304 304 304 306 302 302 300 299 299 298 297 296 297 296 297 297 297 296 296 296 298 298 297 299 299 298 297 300 302 304 308 310 315 318 317 316 317 315 315 315 315 314 314 314 313 312 311 310 310 309 308 308 308 307 307 307 306 307 307 307 307 306 306 306 306 306 306 306 306 306
316 313 312 311 310 308 304 302 302 302 302 302 303 303 304 304 303 303 304 302 301 299 297 297 296 295 295 295 295 295 294 295 294 295 296 297 296 296 296 296 297 297 297 299 300 302 305 309 310 311 310 314 314 315 315 314 313 312 312 313 311 311 309 309 308 308 307 307 307 307 306 306 306 306 306 306 305 305 305 305 305 305 305 305 305
317 314 313 311 310 309 305 302 302 302 301 301 301 301 302 303 303 301 302 302 301 300 298 296 296 295 295 294 294 293 294 294 293 294 295 295 295 295 293 295 295 295 296 297 297 300 301 303 306 310 313 312 317 314 314 314 314 312 312 313 312 311 310 309 309 308 308 307 307 307 306 306 306 305 305 305 305 304 305 304 304 304 304 305 305
317 316 314 311 310 309 306 304 303 303 302 301 300 301 301 301 302 301 300 299 299 299 297 296 295 294 292 292 292 293 294 293 292 293 293 292 292 292 293 292 293 294 294 295 296 297 299 300 301 304 308 310 311 315 314 313 313 314 313 313 312 311 310 309 310 309 308 308 308 307 307 306 306 305 305 305 305 303 304 303 304 303 304 304 304
318 317 315 311 311 310 307 304 303 303 303 303 303 303 303 303 302 300 299 297 296 296 296 297 295 294 292 292 292 291 292 292 292 291 292 291 291 291 290 291 291 292 293 293 294 295 296 297 299 300 302 306 307 307 311 312 314 313 313 313 313 312 311 310 310 309 308 308 308 307 307 306 306 305 305 305 305 304 304 303 303 303 303 302 304
319 318 317 313 310 309 306 303 302 303 304 305 305 303 304 304 303 300 301 299 296 295 295 298 298 302 298 295 293 294 292 291 290 291 291 290 290 289 289 289 290 290 289 291 293 294 294 295 296 297 299 301 302 304 307 309 312 314 314 313 314 313 312 311 311 310 308 308 308 307 307 306 306 305 305 305 304 304 304 303 303 302 302 302 304
322 319 317 315 313 310 307 304 302 303 303 303 303 302 302 303 302 302 299 301 298 295 295 301 303 299 299 297 295 295 298 294 292 291 291 290 289 289 289 288 289 288 287 288 290 292 293 293 294 295 297 299 300 301 302 302 305 305 311 312 313 313 313 312 311 311 309 308 307 307 307 306 306 306 305 305 304 304 303 303 302 302 301 301 301
324 320 318 317 314 311 310 307 304 303 303 303 302 302 302 302 302 302 300 297 296 294 296 299 299 299 296 298 293 295 295 300 301 299 292 290 290 289 289 288 288 287 286 287 289 289 290 291 292 294 294 296 298 299 300 302 301 300 300 301 308 312 312 312 312 311 310 309 307 306 306 306 306 306 305 305 304 304 303 303 301 301 300 301 300
325 322 319 318 316 315 312 309 306 304 304 304 303 302 302 302 301 302 300 300 296 295 295 298 300 305 302 292 289 289 296 297 301 301 289 290 289 289 289 288 287 287 288 288 287 286 287 290 291 291 292 293 295 297 299 299 300 300 300 295 303 310 310 312 312 312 310 310 309 306 306 305 305 305 305 305 304 304 303 303 301 301 300 301 301
326 324 321 318 318 315 314 311 307 304 304 306 305 304 302 302 303 303 302 302 300 297 294 296 300 301 302 302 299 299 298 293 299 299 290 293 293 289 289 290 289 288 287 287 287 287 287 288 289 291 291 292 293 294 296 297 297 299 301 303 306 309 310 310 312 312 311 310 310 308 306 305 305 305 305 305 304 304 303 303 302 301 301 301 300
326 326 324 321 320 318 315 312 309 307 305 306 305 303 302 302 303 303 302 302 302 297 296 295 297 298 298 298 296 291 293 293 295 296 294 293 289 290 290 291 290 288 287 287 286 286 287 286 288 289 290 290 290 291 293 295 297 297 300 302 309 309 310 309 309 310 311 311 311 309 307 306 305 305 305 305 304 304 303 303 302 301 301 301 300
325 325 326 324 321 321 318 315 312 310 306 305 305 305 304 303 302 302 303 302 301 301 300 299 294 297 299 297 296 293 291 292 295 299 298 292 290 289 290 290 289 288 287 287 287 286 287 287 287 288 288 288 288 289 290 292 294 296 299 303 310 310 309 310 308 308 308 308 310 310 309 307 306 305 305 305 305 304 303 303 302 301 300 300 299
322 323 323 323 320 320 319 317 314 313 307 308 307 307 306 304 302 301 301 301 301 302 303 301 298 300 300 298 297 295 292 291 291 293 294 295 295 287 288 289 288 288 288 288 287 287 286 287 287 287 288 288 287 288 289 290 290 291 296 303 310 312 310 309 308 307 306 306 308 308 309 309 308 306 306 305 305 304 303 302 302 301 301 300 300
321 320 320 320 320 319 318 317 314 312 307 308 307 306 305 304 302 301 301 301 302 301 302 303 300 301 302 301 298 296 291 290 290 289 289 291 296 291 291 288 286 287 289 288 288 288 286 286 286 286 286 287 286 286 287 288 289 290 293 300 307 311 310 308 307 306 306 306 306 306 307 308 308 308 307 306 305 304 303 303 302 302 301 300 299
319 318 318 318 319 319 319 319 316 313 309 308 307 306 306 304 303 302 301 301 301 301 301 302 302 299 300 300 299 298 298 297 297 291 290 290 289 291 291 292 291 292 290 289 289 289 287 285 285 285 285 285 285 286 285 286 288 290 291 296 301 307 309 309 307 305 305 305 305 305 305 305 306 307 307 306 306 305 304 303 303 302 301 301 300
316 316 315 315 315 315 314 316 315 315 312 310 309 308 307 306 305 303 303 302 302 301 301 300 300 300 300 301 300 300 301 302 304 298 291 292 292 292 291 293 290 290 289 287 289 287 286 285 286 286 285 284 285 285 285 286 287 289 290 293 299 303 308 309 307 305 304 304 303 303 304 304 305 304 305 305 306 306 305 304 303 302 301 301 300
314 315 316 316 315 315 314 314 314 314 313 312 310 309 308 307 305 304 303 302 301 301 300 300 300 299 299 300 301 300 299 299 299 297 294 293 293 291 292 289 290 290 288 287 286 287 287 286 286 286 285 284 284 284 284 285 286 287 290 290 295 299 303 306 306 305 303 302 302 301 302 303 304 304 305 305 305 306 305 304 303 302 302 302 301
313 314 317 317 317 317 317 316 315 315 314 313 311 310 309 307 306 305 303 303 303 301 301 301 300 300 301 300 299 299 299 299 298 297 295 292 290 290 292 288 288 289 287 285 287 285 287 286 287 286 285 284 284 284 284 283 284 287 289 289 292 297 299 302 305 305 302 301 300 300 300 300 302 302 303 305 305 305 305 304 303 302 302 302 301
312 314 314 315 316 317 317 317 316 315 313 312 311 311 309 308 306 306 305 304 303 302 301 300 300 300 300 300 299 299 299 299 298 297 297 295 294 293 291 290 289 286 285 285 284 284 288 288 286 285 285 285 284 284 284 283 284 286 287 289 290 293 297 301 305 305 303 302 301 301 300 299 300 301 301 301 302 302 305 304 303 302 302 301 301
308 308 309 310 312 313 315 315 315 315 314 312 311 310 309 308 307 306 305 305 303 302 301 300 300 300 300 300 299 298 299 299 298 298 297 296 295 295 293 292 291 292 289 284 284 283 287 286 287 285 285 285 285 285 285 285 283 286 286 288 290 291 295 299 304 305 304 302 301 301 300 299 300 300 300 299 299 300 300 300 299 299 299 298 298
306 305 306 306 308 309 311 312 313 313 313 312 311 310 309 307 306 305 305 305 303 302 301 300 300 300 299 299 299 299 299 299 298 297 297 296 295 295 295 293 294 292 293 290 291 287 288 286 285 286 285 285 285 285 284 283 284 284 285 286 288 289 291 297 302 305 304 302 301 301 300 299 299 300 299 299 299 300 300 299 299 298 298 298 298
305 304 304 304 305 303 307 308 309 310 311 311 310 309 308 307 306 306 306 305 304 303 302 301 301 300 299 299 298 298 299 298 297 296 295 295 293 293 293 293 293 292 293 292 295 294 293 287 286 286 285 285 285 285 284 283 285 284 283 284 286 286 290 294 299 302 303 303 301 301 301 299 298 298 297 298 298 299 299 299 298 298 298 298 298
302 303 302 302 302 303 304 304 305 306 307 307 307 308 306 306 306 305 305 306 305 304 304 302 302 300 299 298 298 298 298 298 297 296 294 293 293 293 292 292 292 292 292 293 291 295 294 292 286 288 286 284 285 285 284 284 284 284 283 283 284 286 288 289 295 299 300 301 300 299 300 299 299 298 297 296 298 298 299 298 298 298 298 298 298
302 302 302 301 301 301 301 302 303 304 304 305 305 305 305 306 306 306 305 305 304 303 303 303 301 300 299 297 297 297 297 297 296 296 295 293 293 292 292 292 291 291 291 291 290 291 293 295 292 287 287 285 285 284 284 283 284 285 283 283 283 287 285 285 291 295 298 299 299 299 299 300 300 298 298 297 297 297 298 297 297 298 298 298 297
300 300 300 300 301 300 301 300 301 302 302 303 303 304 304 305 305 305 305 304 303 302 301 300 301 300 299 298 298 298 298 297 296 296 295 294 293 293 292 292 291 291 290 289 288 290 294 293 291 288 287 286 284 284 283 283 282 282 283 283 283 283 283 283 284 290 294 297 298 298 298 299 299 298 297 297 296 297 297 297 298 297 297 297 296
299 300 300 300 300 300 300 300 300 301 301 302 302 303 303 303 303 304 304 303 302 301 300 299 298 299 299 297 297 298 298 297 297 296 296 295 294 293 292 291 290 290 290 289 289 289 290 292 287 285 285 286 284 284 283 283 281 282 282 281 281 282 282 282 282 284 291 294 295 296 297 298 298 298 297 297 297 297 298 298 296 296 296 295 295
298 299 299 299 299 299 299 299 300 300 300 300 301 302 302 302 302 302 303 302 301 299 299 299 299 299 298 297 297 297 298 297 296 296 296 295 294 292 292 291 290 290 290 290 289 288 289 290 292 286 283 284 283 283 283 283 283 282 281 281 280 281 282 282 281 282 288 292 294 295 296 297 297 297 296 296 296 296 296 296 296 295 294 295 294
297 297 297 298 297 298 298 298 298 299 299 299 299 300 301 301 301 301 301 301 301 300 299 299 299 298 298 297 297 297 297 296 296 296 295 295 294 293 292 292 291 290 291 290 290 289 289 289 290 286 286 284 284 284 284 284 283 281 281 281 281 280 281 281 281 281 285 290 292 292 294 295 295 295 295 294 295 295 295 295 295 295 295 294 293
296 295 295 294 296 296 297 297 297 297 297 298 298 298 300 300 301 300 300 300 299 299 299 299 296 298 297 297 297 297 296 295 295 295 295 294 294 293 292 292 291 291 291 290 290 289 288 288 289 285 284 284 284 284 284 282 282 281 281 280 280 280 280 281 281 281 283 289 290 291 291 292 291 291 292 292 293 294 294 294 294 294 294 294 292
294 293 294 293 294 294 295 296 297 297 296 296 296 297 298 298 298 299 299 298 298 299 299 299 298 298 298 297 297 297 296 296 296 296 296 295 294 293 293 292 292 291 290 290 290 289 288 288 288 287 283 282 282 282 283 283 281 280 280 280 281 280 280 279 280 280 281 284 285 287 288 289 289 290 290 291 291 292 293 294 293 293 293 292 292
292 292 292 292 293 293 294 295 295 295 296 296 296 297 297 298 298 297 297 297 297 297 298 298 298 298 298 298 297 297 297 297 296 296 296 296 295 294 293 293 292 291 290 290 289 288 288 287 287 288 286 283 282 281 282 283 282 281 280 279 279 280 280 279 278 279 280 282 284 286 285 286 287 287 288 290 291 292 292 293 293 292 292 292 291
291 291 292 292 293 292 293 293 294 296 295 295 296 297 297 297 297 296 296 296 296 296 297 297 297 297 298 298 298 298 297 297 297 297 297 296 296 294 294 293 293 291 290 290 289 288 287 287 287 287 286 283 282 283 282 281 280 281 281 280 279 278 278 279 279 278 279 280 280 281 284 285 285 286 287 288 289 291 291 291 291 291 291 291 291
290 290 291 291 291 292 292 292 293 293 294 294 296 295 296 296 297 296 296 296 296 295 296 296 296 297 297 297 297 298 297 294 293 294 295 295 297 295 295 294 292 291 290 290 289 288 288 287 286 287 285 283 281 280 279 279 279 279 281 280 280 280 279 278 279 280 280 278 279 279 280 282 281 282 283 283 285 287 289 290 290 290 291 291 290
289 290 290 290 290 291 291 292 292 293 293 295 292 293 294 296 296 297 297 296 295 295 295 295 296 296 296 296 297 293 292 291 291 292 293 293 293 295 296 294 293 291 290 289 289 289 288 287 286 286 285 283 282 281 279 280 281 282 280 279 278 280 278 277 278 279 280 279 278 277 278 280 280 280 281 280 282 283 284 286 287 288 289 290 289
289 289 289 289 290 290 291 291 292 292 293 294 292 294 295 295 295 295 295 295 295 295 295 295 295 295 295 296 296 294 292 291 292 291 293 293 293 293 293 293 293 293 291 290 289 289 288 287 288 287 286 285 285 284 282 282 282 281 281 280 279 279 277 275 274 278 280 279 279 277 278 279 279 278 279 280 281 281 283 283 286 288 288 289 288
288 288 288 289 289 290 290 291 291 292 293 292 293 294 294 295 294 294 295 295 295 295 295 295 295 295 295 295 295 296 296 295 295 294 292 292 292 292 293 293 293 293 293 292 290 289 289 288 287 287 286 286 286 286 284 283 282 281 281 280 280 279 278 277 278 277 279 280 278 279 279 280 279 278 278 279 280 280 281 284 286 288 288 288 288
288 288 289 289 289 289 289 290 290 291 292 292 293 294 294 294 295 294 295 295 294 294 294 295 294 294 294 294 294 295 296 291 291 294 294 293 291 291 291 291 292 292 293 294 293 292 291 289 288 288 288 287 287 287 286 284 284 280 281 280 280 280 280 279 279 280 278 280 280 279 278 279 277 277 277 279 278 279 280 284 286 287 288 287 287
288 288 288 288 289 289 289 289 290 291 291 291 293 293 294 294 294 295 295 295 294 294 294 294 294 294 294 294 293 293 294 293 293 293 293 293 293 292 292 292 292 291 291 292 292 291 291 290 290 288 289 289 288 288 287 285 283 281 280 279 280 280 280 280 281 282 279 281 279 279 278 278 277 277 276 278 277 277 278 281 285 287 287 287 286
288 288 288 288 289 289 289 289 289 289 290 291 292 293 293 294 294 294 295 295 295 295 295 294 294 294 294 294 294 293 294 294 294 293 293 292 292 290 290 290 291 291 291 291 291 291 291 291 291 290 291 290 289 288 285 285 284 284 283 282 282 282 282 281 278 278 277 280 281 281 276 278 276 277 276 277 276 276 276 280 284 286 286 286 286
287 287 287 287 287 287 288 288 288 288 289 290 291 292 293 294 294 294 294 294 294 294 294 294 294 295 295 294 293 293 293 294 292 292 292 292 291 289 289 289 290 290 290 291 291 291 291 291 291 290 290 290 289 287 286 285 285 285 285 284 284 282 280 278 277 275 275 278 281 281 279 275 275 276 276 276 275 275 275 276 283 285 286 286 286
286 287 286 287 287 287 287 287 287 288 288 289 290 291 292 293 293 292 293 292 292 293 293 294 294 294 294 294 293 293 293 293 292 293 293 292 290 289 289 288 289 289 289 289 290 291 291 291 292 292 292 292 292 291 289 288 286 285 283 282 280 281 279 277 278 275 275 276 278 281 279 273 274 275 274 273 275 275 275 275 277 284 285 285 286
286 286 286 287 287 287 287 287 288 287 288 288 289 290 291 292 291 291 291 290 290 291 292 293 293 293 293 289 290 293 292 292 292 293 293 291 290 289 288 288 287 287 288 288 288 288 290 290 290 290 291 291 290 290 290 289 288 286 283 281 282 281 279 279 276 275 276 275 276 279 277 274 274 275 272 271 272 274 275 275 275 277 283 284 285
285 286 286 286 286 286 286 286 286 286 287 287 289 290 291 291 291 289 289 289 289 289 290 290 292 292 293 291 289 289 291 291 292 293 293 291 289 289 288 288 287 287 288 288 287 286 286 286 286 287 287 288 287 287 287 288 287 286 285 284 283 280 279 279 278 275 272 273 276 279 277 273 272 274 273 271 271 272 272 274 275 275 276 277 279
Wind_Speed
5 4 3 4 4 4 3 3 3 4 4 3 3 4 4 4 4 4 4 4 4 4 4 4 4 2 3 4 4 3 2 2 2 1 2 1 2 6 7 8 11 13 15 14 15 14 14 13 13 11 11 11 11 12 12 12 13 13 14 14 14 13 14 14 14 14 14 14 14 14 15 14 15 14 14 15 15 16 15 16 16 16 16 16 17
5 4 5 4 4 4 3 3 3 3 3 4 2 3 4 4 4 4 5 4 4 3 4 4 4 3 2 4 4 3 2 2 1 1 2 1 0 2 5 5 7 11 14 15 15 14 12 14 12 12 11 11 12 11 11 11 12 11 12 13 13 13 13 13 13 13 13 13 13 13 13 13 14 13 14 14 14 15 14 14 15 15 15 15 15
5 5 4 4 4 4 3 3 3 3 3 3 3 3 3 3 4 5 4 4 4 3 3 4 4 3 3 3 3 3 2 2 2 2 2 2 1 1 2 3 5 9 12 14 14 14 14 13 12 11 11 11 11 11 11 11 11 11 11 12 12 12 12 12 12 12 13 12 12 12 13 13 13 12 13 13 14 13 14 14 14 14 15 14 14
5 5 5 5 5 4 4 4 4 3 3 3 4 3 3 4 3 3 4 4 4 3 2 4 3 3 3 3 2 2 3 2 2 1 1 2 1 1 1 2 5 4 9 11 13 12 14 15 13 13 13 11 12 12 12 11 11 11 11 11 11 12 12 12 12 11 10 12 11 12 12 12 12 12 11 12 12 12 13 13 14 14 13 13 14
5 6 5 5 5 5 4 3 3 3 3 4 5 4 4 4 4 3 4 4 4 4 3 3 3 3 2 3 2 2 2 2 1 1 1 1 1 1 1 2 2 5 4 9 9 11 10 13 13 14 15 13 12 12 11 11 11 11 11 11 11 11 11 11 10 9 9 11 11 11 11 11 11 11 11 11 11 11 11 12 12 13 13 13 13
6 5 5 5 5 4 4 4 4 4 4 5 5 4 4 4 5 4 4 3 4 3 4 4 2 2 2 2 2 1 1 2 1 1 1 1 1 1 1 1 2 1 2 3 8 10 9 10 15 15 14 11 11 14 14 13 12 11 11 12 11 10 11 10 10 9 9 10 10 10 10 10 10 10 10 10 10 9 10 11 11 12 12 12 13
6 6 6 5 5 5 5 4 4 4 4 4 5 4 4 5 5 5 4 3 3 3 3 3 4 3 2 2 2 1 1 2 1 1 1 1 1 1 1 2 1 1 1 0 3 3 11 11 10 8 13 13 12 12 11 11 11 10 10 10 10 10 9 8 11 9 8 9 10 9 9 9 9 9 9 9 9 8 10 9 11 11 11 11 12
7 7 7 6 6 6 5 5 6 5 5 5 5 5 5 4 4 5 6 4 4 3 2 3 3 3 2 1 1 1 2 2 1 1 1 0 1 2 2 2 2 2 2 1 0 2 1 12 12 12 12 12 13 13 13 12 12 11 11 10 10 10 10 9 8 9 9 8 7 8 7 6 8 8 8 8 8 7 8 8 10 10 9 11 11
7 7 6 7 6 6 6 6 6 6 6 5 5 5 6 5 5 4 3 5 5 5 4 3 3 2 2 2 1 1 2 1 1 1 1 1 1 1 1 1 2 2 1 1 0 0 4 4 7 10 11 10 13 14 14 14 14 15 13 12 12 12 11 10 10 9 9 9 7 8 8 7 8 7 7 7 6 6 7 7 8 9 8 10 9
10 9 7 7 7 7 6 7 7 6 6 5 4 4 4 6 6 5 5 5 5 6 5 4 3 3 2 1 1 1 1 1 1 0 1 1 1 1 0 0 0 1 1 1 1 1 1 3 7 5 4 9 11 12 13 12 12 10 11 13 13 13 10 9 10 9 8 8 8 7 8 8 7 7 6 7 5 4 7 6 7 8 6 8 9
8 9 8 7 6 6 7 9 7 6 6 5 5 5 4 5 6 7 4 4 4 4 4 5 3 2 2 2 1 0 1 2 1 1 1 1 1 0 1 0 0 0 1 1 1 1 1 1 1 1 3 4 7 15 14 16 14 14 13 14 14 14 13 11 11 10 9 9 9 8 5 6 6 6 6 6 5 1 6 5 5 6 6 7 8
11 10 7 7 7 7 8 9 9 9 9 8 7 7 9 8 7 7 7 4 3 4 5 6 4 3 2 1 1 1 1 1 1 2 2 2 1 1 1 1 1 1 0 1 1 1 1 1 0 0 1 3 4 1 13 16 16 18 17 16 16 13 14 14 13 12 11 10 9 9 8 6 6 6 6 7 6 1 5 3 5 4 5 5 6
10 11 9 9 8 6 6 7 8 9 10 11 12 12 11 10 8 7 9 6 3 4 6 6 7 3 1 1 2 2 2 2 3 3 2 1 1 2 1 1 1 1 0 1 1 1 1 1 1 0 1 1 2 2 3 5 4 15 16 18 17 17 16 15 15 14 12 11 10 9 9 8 7 6 5 6 6 3 4 3 4 4 5 3 7
10 11 12 9 10 9 9 8 9 9 9 6 7 8 10 9 9 8 8 11 9 9 7 8 5 11 9 5 3 3 3 3 4 4 3 3 3 2 2 3 3 2 0 1 1 1 0 0 1 1 1 1 2 1 1 2 2 7 19 18 17 18 16 17 16 15 14 13 12 11 10 9 8 8 7 7 7 4 5 4 3 2 4 2 6
14 12 11 11 11 9 10 10 9 8 7 8 8 9 9 10 11 9 8 5 4 7 10 13 7 4 4 4 4 5 5 4 5 8 6 5 4 4 4 4 5 2 0 1 2 1 1 1 1 2 2 2 2 2 2 3 4 2 1 6 18 19 20 19 17 16 15 15 14 12 11 10 9 9 9 8 8 6 6 5 3 2 3 2 2
13 13 12 11 12 12 10 11 11 10 8 8 9 11 11 8 8 7 5 7 5 8 10 11 5 11 3 5 1 2 3 13 15 12 7 7 5 5 3 4 5 4 2 4 5 3 2 2 2 3 2 3 2 2 3 3 5 2 3 3 5 18 19 20 19 17 17 16 15 14 13 12 10 10 10 8 8 7 7 5 4 3 1 4 1
10 11 11 12 12 14 11 9 12 13 10 8 9 12 12 11 12 11 12 13 10 6 9 12 11 12 10 6 2 1 11 3 5 7 5 6 8 6 5 5 7 6 6 7 5 5 3 3 4 3 4 4 4 3 3 4 4 4 4 4 5 13 19 21 21 20 18 17 16 15 14 13 12 10 10 10 10 8 7 8 6 5 3 4 5
7 9 10 8 8 8 9 10 10 9 9 9 7 7 9 9 9 11 13 11 9 7 9 7 10 8 8 5 6 7 5 4 4 7 1 6 3 7 7 7 7 7 7 7 8 7 4 7 4 5 4 4 4 4 4 5 4 4 3 5 8 8 16 21 22 20 19 19 18 16 15 14 13 12 11 11 11 10 8 8 6 6 5 7 3
7 8 9 11 11 10 9 8 8 7 7 6 7 11 11 12 10 11 10 8 5 9 12 11 6 9 9 11 7 2 1 4 8 2 3 4 5 6 8 8 7 7 10 10 9 7 7 6 5 5 5 4 4 5 4 4 6 6 7 8 12 11 12 19 20 21 20 19 18 17 16 15 14 13 12 12 11 11 10 10 9 8 6 9 1
6 7 9 10 11 12 12 13 13 13 12 10 12 12 10 10 12 13 11 10 11 12 11 9 13 12 14 14 11 3 2 6 5 7 4 4 7 3 5 7 7 8 8 8 9 10 8 8 8 7 6 5 5 5 5 5 6 7 6 13 15 15 13 13 19 19 20 19 18 18 17 16 15 14 14 13 13 12 11 11 11 9 8 5 2
7 6 6 7 9 10 10 11 11 12 10 13 11 11 12 14 11 10 12 12 12 13 9 11 12 11 8 11 11 9 6 4 4 3 5 7 8 8 10 3 4 8 10 10 10 10 11 11 9 8 7 7 7 7 6 6 7 6 7 16 18 19 17 15 12 14 17 18 18 18 18 17 17 16 16 15 14 14 13 11 11 11 8 7 7
7 7 6 5 6 8 8 9 10 9 8 10 10 9 9 10 12 12 12 13 11 11 13 9 9 11 11 10 12 10 6 7 8 7 9 8 11 7 9 10 10 13 11 10 13 11 10 9 9 10 10 10 11 10 7 7 7 6 9 15 18 20 20 18 16 15 15 16 16 16 18 18 18 17 17 17 16 15 14 13 12 11 10 7 5
7 7 7 7 7 7 9 10 10 11 10 10 10 10 10 11 11 11 13 14 12 12 12 13 10 10 11 9 12 13 15 14 16 12 12 10 6 11 6 9 11 9 10 12 8 10 11 9 11 11 9 10 11 8 6 7 7 9 10 14 16 18 22 21 19 18 17 17 16 14 16 17 18 18 18 18 18 17 16 14 13 11 10 11 10
6 6 6 6 6 6 6 6 8 9 11 11 12 11 11 10 11 12 13 16 14 14 12 15 15 12 15 14 14 14 15 14 14 9 11 12 10 11 6 3 5 9 2 3 7 10 11 12 12 11 11 11 11 10 6 6 7 12 11 14 17 18 20 26 23 20 20 20 19 17 17 17 17 18 18 19 19 18 17 16 16 15 14 12 10
7 8 8 9 8 7 6 7 6 7 8 8 9 10 10 11 11 13 13 14 13 14 13 16 15 14 14 12 11 12 12 11 9 8 8 8 8 10 10 4 9 5 3 3 5 5 8 13 12 11 11 11 11 10 10 8 10 12 16 14 20 17 18 21 26 23 22 22 21 21 21 20 18 18 17 18 19 19 18 17 16 14 14 14 11
9 10 9 9 8 9 9 8 8 7 8 9 10 10 10 10 11 13 14 14 14 15 15 16 14 15 11 10 12 12 12 10 11 9 9 9 10 13 12 5 4 8 1 3 2 3 6 12 12 12 12 13 13 13 13 13 9 17 21 13 14 19 19 19 23 24 24 23 23 23 22 21 21 20 19 18 17 17 18 18 16 15 14 13 12
9 9 7 8 10 9 9 9 8 8 8 8 8 9 10 9 9 11 11 11 11 11 12 14 14 15 15 14 12 11 12 11 10 12 11 12 12 12 10 12 8 6 8 4 4 11 8 3 9 9 14 14 13 12 13 10 10 15 16 13 11 17 17 20 23 26 24 24 24 24 22 21 21 20 19 19 18 17 17 18 16 15 14 13 12
7 7 8 8 9 9 9 10 9 9 8 8 8 8 9 10 10 10 12 8 10 13 13 12 16 17 16 14 12 13 11 12 11 11 11 11 10 8 9 11 13 16 8 9 6 10 10 10 6 11 15 15 14 15 14 14 14 20 18 12 11 12 19 20 23 25 26 23 23 22 22 21 20 20 19 18 17 16 15 17 17 14 13 11 8
7 7 7 8 7 9 9 9 9 9 9 9 8 9 9 10 10 10 11 9 9 12 11 13 13 13 13 15 14 13 13 12 11 11 10 10 10 11 10 13 13 14 14 11 13 9 8 14 9 9 14 14 15 14 14 14 14 15 10 12 11 8 15 21 22 25 27 26 23 22 22 21 20 19 17 17 16 16 15 15 10 8 8 9 12
7 6 7 8 8 8 8 9 9 9 10 9 8 8 8 8 9 10 10 8 10 10 11 11 13 12 13 13 13 13 12 12 12 11 10 11 11 11 11 11 10 14 13 14 18 9 9 9 10 10 11 13 14 12 14 16 12 16 13 12 9 10 17 21 23 25 25 27 26 23 22 20 19 18 17 16 17 16 15 15 13 13 13 14 13
6 7 8 8 7 8 8 9 8 9 9 10 9 9 8 8 9 8 8 8 9 11 11 11 12 12 14 14 13 13 11 12 11 10 10 10 11 10 11 10 11 13 14 14 16 10 9 11 9 12 8 13 14 14 13 14 14 15 12 15 15 15 17 16 22 23 23 24 24 23 22 21 19 18 17 17 17 16 16 16 16 16 15 15 14
7 7 7 8 8 8 8 8 9 9 9 9 8 9 9 10 10 10 10 10 12 13 12 10 10 11 13 14 13 13 12 11 11 11 11 11 11 11 11 11 12 12 12 13 16 21 8 10 7 10 13 10 12 14 15 13 12 19 16 15 14 13 12 12 17 18 18 21 23 23 21 21 21 19 18 17 17 16 16 16 16 16 16 15 14
7 7 8 8 8 8 8 9 10 10 9 9 8 8 9 11 10 11 11 11 12 12 10 12 12 13 14 15 15 16 14 14 12 12 12 13 12 12 11 12 12 11 13 14 17 21 14 7 8 5 9 10 9 13 14 13 12 13 15 12 9 10 9 9 9 14 15 19 20 20 21 21 21 20 19 18 17 17 17 17 18 17 17 16 15
7 8 8 7 7 8 9 10 9 9 9 10 8 8 10 11 12 10 11 11 12 12 10 12 11 11 11 12 14 13 12 14 13 13 12 12 12 12 13 12 13 13 12 13 16 15 21 7 7 2 4 11 10 10 14 13 12 9 11 10 8 9 9 8 8 9 17 18 19 20 21 21 21 21 21 20 19 19 19 20 19 18 17 16 15
6 7 7 7 8 8 9 9 9 9 9 9 9 10 11 12 12 12 11 11 12 12 12 13 13 12 13 14 14 13 10 13 14 14 13 13 12 13 14 11 13 13 12 14 13 16 18 17 10 8 8 6 10 10 12 11 10 11 11 12 10 7 7 8 8 8 16 21 22 21 20 20 19 18 19 20 20 21 21 20 20 19 18 17 15
6 6 6 7 7 8 9 9 9 9 9 9 10 10 12 12 12 13 12 12 12 12 12 12 12 11 13 13 14 13 13 14 14 13 12 12 12 12 13 13 13 14 13 13 16 15 15 15 11 9 6 9 8 5 7 8 10 11 12 10 9 10 11 11 11 10 16 24 22 20 20 19 18 16 16 17 20 20 21 21 20 20 19 18 17
6 5 6 5 6 7 9 9 9 9 9 9 10 11 11 11 12 12 12 11 11 12 12 12 12 12 12 14 13 11 12 13 13 13 12 13 13 12 13 12 13 13 11 12 14 14 15 16 13 5 4 6 6 7 9 11 10 10 10 13 13 13 13 12 8 8 10 21 20 20 19 18 16 15 15 16 18 20 20 21 20 20 20 19 17
6 6 6 6 7 8 8 9 8 9 8 8 10 11 11 11 11 11 11 11 11 12 12 12 12 12 13 13 12 11 12 14 14 13 13 15 13 13 14 13 12 12 13 13 12 13 14 16 14 11 6 7 5 6 8 10 10 10 8 9 9 11 10 8 8 8 8 9 9 10 11 11 12 14 15 16 18 18 19 19 20 20 19 17 17
6 7 6 7 7 7 8 7 8 8 8 8 10 11 11 11 11 11 11 11 12 11 12 12 12 12 12 12 12 12 13 13 14 14 13 13 12 15 14 14 13 13 13 13 12 14 14 15 14 13 10 8 8 7 7 9 10 10 13 12 14 12 10 10 6 8 7 5 4 8 8 7 7 5 10 14 17 18 19 19 19 21 18 18 18
6 7 7 7 7 6 8 7 8 8 8 8 9 10 10 10 11 11 11 11 11 12 12 12 12 12 12 13 13 12 13 13 13 13 12 13 11 13 12 12 13 13 14 13 12 12 13 13 14 13 10 9 5 2 4 7 9 9 11 14 17 15 15 12 14 9 6 6 7 5 7 8 8 11 14 14 16 18 20 19 21 19 17 16 19
6 7 7 7 7 8 8 8 8 7 8 9 9 9 10 10 11 11 12 12 12 12 12 12 12 12 12 12 13 13 14 16 19 17 16 14 12 13 13 12 13 13 13 11 12 12 12 12 13 9 9 10 8 7 9 11 16 18 12 12 12 10 12 10 11 11 9 9 6 7 7 8 7 8 7 7 8 13 14 17 14 17 15 19 18
6 6 6 7 7 8 8 7 7 8 9 8 11 15 14 11 10 10 11 11 11 12 12 12 12 12 13 12 13 17 18 18 18 19 20 20 20 17 13 11 13 13 13 13 13 12 12 14 14 12 13 14 13 13 10 12 6 4 8 13 13 9 8 6 1 6 8 9 9 9 7 6 7 6 7 7 8 10 8 9 8 9 12 15 17
6 6 6 6 7 7 8 8 8 8 8 9 14 14 16 18 14 11 11 12 11 12 12 12 13 12 12 12 12 14 16 16 17 20 20 21 22 23 24 23 18 15 13 14 14 13 13 14 13 12 15 16 15 12 15 13 9 12 9 10 12 10 13 12 14 6 7 11 9 7 7 7 8 9 8 8 7 7 9 8 13 15 15 17 17
5 4 6 7 7 7 7 7 9 9 9 11 15 15 16 17 16 13 11 11 11 11 12 12 12 12 12 12 12 11 11 12 12 13 17 22 23 24 25 25 24 25 22 17 15 13 14 13 13 15 15 16 14 12 13 11 13 11 12 11 13 15 15 18 17 14 9 13 10 12 13 9 11 10 8 7 7 6 9 13 18 18 18 18 17
6 7 7 7 8 7 7 8 9 9 10 12 14 16 16 17 18 16 11 11 12 12 12 13 13 12 12 12 12 10 10 13 12 12 12 13 17 22 24 24 24 25 25 27 25 19 12 14 16 17 16 15 14 14 13 15 12 12 11 11 14 14 15 17 15 12 11 18 14 13 13 11 10 9 7 6 7 6 9 15 19 20 19 19 17
7 8 8 8 8 8 8 9 9 9 10 11 14 15 16 17 17 15 12 13 13 13 13 13 13 13 13 12 12 12 9 9 10 11 11 12 12 12 14 14 15 18 22 25 26 26 22 17 16 18 17 12 15 14 11 12 13 15 16 17 15 14 15 18 16 11 8 15 18 14 10 11 10 10 8 6 6 6 6 11 19 20 19 19 18
8 8 8 8 9 8 9 9 9 10 10 12 13 15 16 17 18 16 12 12 12 13 13 13 14 14 13 13 13 14 12 10 10 10 11 12 11 12 13 13 14 14 14 15 16 15 17 17 18 19 18 13 14 10 9 14 19 18 18 19 20 19 14 3 6 5 9 10 12 11 13 10 10 11 6 6 5 6 5 11 18 19 20 19 19
6 6 7 6 9 10 10 9 10 11 10 12 14 15 16 17 18 12 11 12 13 13 14 13 13 13 12 12 12 13 13 13 12 15 15 12 11 14 14 14 13 13 13 14 16 18 17 16 16 17 16 14 11 10 12 13 13 11 8 5 6 7 9 9 8 6 8 8 10 12 8 8 7 12 7 4 6 5 6 5 14 19 19 19 18
7 7 8 7 7 8 9 9 10 11 10 11 14 15 15 18 14 10 11 10 12 13 14 13 12 12 12 11 11 12 13 13 12 14 17 16 13 15 14 15 14 13 13 10 15 20 21 22 24 23 22 24 22 21 18 21 16 13 10 10 14 13 11 11 11 8 8 9 8 10 7 6 7 7 5 4 6 6 6 6 4 13 18 17 17
8 8 8 8 8 8 10 11 10 11 11 10 14 16 17 17 15 11 9 9 11 12 12 13 11 11 13 16 14 13 14 13 13 15 17 15 13 14 14 14 16 16 14 9 8 10 17 22 23 23 22 21 19 20 21 23 23 18 16 19 16 12 15 14 12 9 6 7 9 7 8 5 7 6 7 3 3 0 4 4 5 3 11 15 18
9 8 7 8 9 8 8 11 11 12 11 10 13 15 15 15 13 8 9 8 11 11 10 12 12 10 11 11 15 15 15 15 18 17 18 15 12 13 13 14 16 16 13 8 10 10 9 10 12 13 13 16 15 14 14 24 24 24 18 16 11 14 15 12 10 9 4 6 9 10 9 7 10 7 7 6 3 1 1 3 4 4 2 1 2
Wind_Direction
152 149 141 133 128 135 138 133 132 135 139 140 133 128 118 120 119 119 112 115 113 110 104 95 107 99 103 100 90 67 61 59 70 67 62 40 146 147 151 145 139 135 129 125 128 130 130 125 121 120 120 117 115 114 115 113 114 115 114 114 110 104 103 102 101 98 96 95 92 91 89 86 84 81 74 74 75 71 67 69 67 64 61 58 55
157 150 153 145 141 138 141 145 142 141 143 140 142 130 131 128 121 123 126 123 119 117 120 110 93 91 81 100 89 80 42 19 18 48 66 67 20 146 152 151 143 135 130 134 135 136 134 130 130 129 125 126 124 120 118 119 117 116 115 114 111 109 107 107 104 102 101 98 95 95 91 87 83 80 78 77 77 73 69 66 66 65 62 59 56
152 154 153 147 150 153 153 145 142 146 141 128 128 129 130 133 142 140 140 131 115 115 114 110 105 94 81 82 100 108 91 66 35 22 55 61 37 7 360 35 139 135 139 146 143 141 140 138 133 136 135 135 134 130 127 125 125 123 121 117 115 114 112 110 109 108 106 101 100 95 90 88 89 84 80 79 78 73 69 62 65 63 61 57 55
156 158 155 156 160 160 152 158 150 136 138 133 131 131 124 118 106 99 105 112 113 108 94 110 106 98 97 79 73 102 104 88 86 63 59 53 23 15 42 21 16 122 155 151 148 148 149 143 142 145 146 143 142 138 136 134 133 132 128 124 122 121 119 115 114 114 108 107 102 100 99 93 91 87 84 81 76 71 69 64 63 64 59 56 53
166 164 158 160 157 158 158 162 148 144 137 134 126 126 126 122 109 111 105 107 109 105 96 96 104 99 96 111 116 87 94 93 76 56 53 69 32 8 36 18 15 21 85 139 140 152 161 151 149 154 148 151 148 145 145 144 141 139 134 132 130 128 125 122 119 115 110 108 108 106 103 101 97 92 89 86 82 77 75 68 60 63 57 53 49
165 163 162 159 161 165 162 156 154 145 139 145 146 149 140 134 133 130 127 131 131 130 137 125 107 110 102 78 72 70 94 95 74 46 5 40 15 35 23 32 22 26 2 90 150 158 167 160 159 160 162 155 156 152 154 154 153 152 151 144 139 136 133 131 126 120 117 112 114 109 106 106 102 97 91 88 88 75 70 67 64 63 56 49 46
174 163 166 165 164 167 171 164 152 152 150 160 152 150 146 147 150 138 132 129 126 140 145 136 139 134 120 128 126 115 84 90 81 84 27 8 43 47 27 30 16 14 346 128 21 183 172 167 169 160 157 171 160 163 163 162 159 157 155 151 145 146 144 143 130 133 124 120 122 117 113 110 107 101 95 93 90 79 72 67 66 66 59 54 45
175 175 163 171 172 173 174 157 160 158 160 158 160 158 156 149 162 153 146 152 150 145 142 139 132 122 117 113 110 118 114 87 49 43 358 348 55 22 39 30 6 8 323 351 9 17 258 172 173 172 176 173 171 168 168 169 166 164 163 161 155 151 154 146 142 141 132 128 130 128 119 108 107 107 102 92 87 81 79 61 65 68 55 59 55
176 181 171 168 177 175 168 166 164 164 164 164 171 165 159 157 164 185 171 154 164 147 149 151 141 125 118 127 107 108 98 80 74 347 331 40 67 57 51 43 5 338 315 330 31 328 27 114 159 179 183 176 178 175 177 173 175 174 170 169 165 164 163 163 155 144 149 149 137 136 134 137 132 121 117 114 98 92 87 74 68 72 49 56 51
181 182 191 182 179 173 158 169 169 163 159 163 168 162 168 167 161 176 176 159 167 166 163 153 145 142 131 116 119 116 120 127 90 343 261 218 174 157 110 89 360 329 327 320 328 16 20 63 89 84 149 180 186 186 174 174 181 177 175 165 171 172 171 159 155 160 160 152 151 151 153 149 143 139 120 122 117 80 89 76 65 76 54 58 52
191 184 181 179 178 178 166 168 171 166 157 158 152 168 177 189 171 163 168 183 170 168 148 140 129 118 119 111 139 350 145 128 135 185 217 278 268 329 274 185 188 360 300 326 338 342 18 308 83 131 101 99 198 188 183 184 181 180 178 177 177 180 172 170 166 169 167 163 161 156 156 153 144 138 143 130 122 270 95 79 70 77 64 57 57
188 190 196 181 175 180 184 175 176 170 166 165 170 179 184 176 187 169 160 139 142 148 137 132 106 82 41 31 357 282 230 162 181 196 199 219 262 285 235 216 207 213 327 355 332 335 341 325 18 171 115 113 74 32 191 192 187 185 188 183 185 177 173 175 176 175 174 172 167 167 166 159 154 156 165 155 136 175 104 105 86 78 76 58 59
188 185 194 195 192 176 165 185 182 180 178 185 183 183 180 178 163 168 162 155 153 152 157 144 133 117 18 279 281 243 227 236 235 222 208 204 223 240 273 269 232 248 21 3 318 334 338 337 321 323 273 143 106 109 76 123 181 194 183 184 185 183 179 180 178 179 179 176 174 173 172 171 172 174 159 147 146 170 136 112 82 73 74 51 66
193 195 201 193 194 188 183 177 188 195 200 190 179 179 179 178 167 172 193 173 173 167 167 147 188 195 187 212 273 261 213 225 236 234 213 205 206 224 240 247 222 200 218 268 242 260 306 315 297 308 273 222 177 153 160 139 143 213 190 190 191 183 180 185 184 181 181 180 177 178 178 177 180 178 176 161 159 180 139 153 115 89 78 40 78
201 199 199 201 202 191 190 188 192 191 188 190 185 186 188 183 183 179 173 206 140 167 178 195 173 133 75 77 231 231 242 237 227 231 188 204 188 207 197 227 244 194 215 256 223 208 206 230 263 258 264 255 185 179 187 194 187 188 345 212 199 192 187 188 188 186 186 185 183 181 181 184 188 185 179 180 166 177 166 150 152 130 136 48 82
196 195 199 198 195 194 188 185 193 197 198 190 185 196 194 189 190 200 153 156 199 191 196 197 148 143 164 202 34 313 296 235 222 226 188 201 195 208 187 216 220 207 202 225 206 176 204 209 227 232 255 265 241 188 194 200 183 139 189 253 249 201 193 192 192 191 187 188 187 186 184 186 189 188 187 190 177 191 177 149 189 168 187 87 284
198 197 198 201 199 206 198 192 191 194 197 200 199 201 198 203 195 185 186 197 189 182 202 205 207 199 155 118 56 283 229 302 199 224 150 205 214 198 192 204 205 217 227 230 216 205 188 219 216 218 221 228 247 222 204 196 195 197 192 229 249 222 200 197 196 192 192 191 187 188 187 189 190 191 191 189 186 199 180 169 182 166 205 127 232
196 192 195 202 207 204 203 199 200 200 199 203 197 182 189 191 199 206 206 206 185 168 198 220 220 233 231 220 140 176 197 198 142 232 90 247 208 196 206 206 200 217 228 235 231 221 190 215 204 219 212 218 227 236 210 201 201 195 202 206 221 223 198 199 199 197 195 195 191 189 190 190 193 193 194 194 191 192 186 182 180 171 182 207 220
199 196 195 195 199 199 200 201 202 209 210 195 186 198 199 200 196 204 209 196 160 192 199 199 206 252 244 243 237 152 271 156 221 86 251 218 235 201 214 203 195 206 219 217 223 222 219 218 219 218 219 209 222 244 235 221 206 205 204 205 208 202 199 200 200 199 199 198 195 192 192 193 194 196 197 199 193 194 191 189 187 183 192 226 200
210 199 195 198 203 203 198 199 198 202 197 198 203 201 196 193 192 200 199 197 199 203 201 183 184 213 214 225 233 195 216 278 305 242 245 195 232 231 266 217 205 224 222 220 207 213 223 210 223 230 227 212 211 223 227 220 217 202 207 206 206 199 198 198 200 200 200 201 201 196 195 195 196 198 199 199 199 198 197 195 186 195 199 254 143
210 217 208 200 205 212 205 206 206 209 202 215 217 213 206 203 193 192 202 205 206 214 206 198 200 213 184 225 231 233 220 248 297 281 247 246 249 185 219 148 226 241 227 209 213 211 210 215 215 211 218 217 206 207 215 217 215 211 208 206 206 201 199 194 184 190 199 203 203 202 199 199 197 198 201 200 200 200 199 196 193 194 203 212 212
214 214 219 211 202 199 200 204 207 207 202 216 214 208 205 205 203 205 207 211 215 220 223 213 205 222 214 210 209 219 247 258 244 234 256 240 248 223 217 184 200 230 209 206 209 207 211 212 221 226 226 223 217 213 210 214 217 212 215 212 211 207 202 198 190 182 184 192 201 205 203 204 201 201 202 202 201 201 197 197 197 197 204 215 229
215 219 215 214 213 204 205 204 201 198 197 203 210 207 205 204 204 203 206 210 213 215 223 234 222 217 220 213 212 206 212 218 228 216 219 229 249 253 239 217 223 233 217 215 200 206 206 209 220 224 217 230 253 241 228 219 221 226 219 217 218 217 209 203 197 191 188 189 193 197 205 205 206 206 206 208 205 200 201 196 197 201 205 211 219
216 218 215 214 214 216 213 213 208 202 203 200 203 201 201 201 204 207 215 216 213 213 217 223 223 222 223 221 223 222 227 229 235 210 202 226 219 249 248 257 303 247 7 231 208 215 209 213 221 216 213 218 228 222 243 241 230 226 225 223 219 220 218 214 206 197 196 196 196 196 198 202 205 207 212 211 207 204 199 198 200 202 209 219 222
218 221 220 213 215 220 213 212 209 209 211 209 214 208 206 204 207 214 220 219 215 214 217 221 219 221 223 221 225 223 228 230 231 203 204 214 216 249 248 166 241 246 191 131 212 226 217 225 220 216 218 220 219 214 221 219 222 220 223 226 221 217 221 219 212 203 200 200 200 199 201 200 199 200 207 211 208 205 203 204 211 207 212 216 231
221 222 220 220 221 225 224 222 216 211 207 210 209 207 205 208 209 212 216 221 221 217 222 225 225 228 228 230 226 227 231 225 225 217 205 189 217 224 240 226 240 261 87 232 173 193 229 231 219 217 217 219 215 218 217 217 203 217 218 218 218 218 217 222 216 205 202 201 201 201 201 201 200 200 203 205 206 208 207 210 211 207 216 219 224
222 227 222 224 228 229 230 233 226 218 207 208 208 208 208 210 215 221 224 225 224 224 230 230 231 231 225 223 226 226 229 226 223 225 220 220 220 219 214 240 250 228 248 210 234 214 231 189 205 212 217 218 215 214 223 226 222 210 210 218 221 218 216 220 218 211 204 202 201 199 199 199 201 200 203 207 208 210 213 210 217 211 217 221 225
224 221 222 218 226 229 230 233 234 232 224 216 209 206 204 210 218 218 226 218 222 223 230 228 232 232 232 231 231 232 225 226 223 226 223 227 230 227 204 219 241 261 210 247 199 246 202 234 199 212 217 217 214 215 213 211 219 214 208 213 213 214 217 219 220 215 212 207 204 201 199 198 198 200 202 204 207 209 214 218 218 223 215 221 226
226 214 222 220 224 226 230 232 231 231 231 225 219 214 207 212 218 218 225 214 218 227 228 230 233 231 232 229 230 233 229 227 227 225 225 223 226 228 218 222 224 242 259 256 241 226 195 205 217 204 206 213 217 214 217 221 218 208 203 209 209 202 212 216 218 217 217 214 210 205 201 199 199 199 200 201 203 207 208 211 215 213 204 208 215
222 222 217 224 222 222 229 232 229 228 230 228 221 219 216 221 223 224 224 211 221 227 230 233 235 231 233 233 231 237 233 229 227 223 222 222 221 223 223 228 222 234 244 257 267 192 236 189 208 223 170 207 212 213 215 222 213 206 214 211 205 202 208 211 213 215 216 215 213 209 204 201 200 200 201 203 203 203 205 207 211 212 212 214 218
218 217 220 226 224 226 226 233 230 230 230 230 223 224 219 230 229 231 224 219 225 233 234 232 238 232 233 234 232 238 232 234 231 226 223 221 225 218 227 217 226 228 239 250 267 257 177 232 212 223 200 202 205 211 214 220 211 199 209 214 213 207 204 211 214 215 215 215 213 211 208 205 202 201 202 205 206 205 207 209 212 214 214 217 219
219 223 226 225 224 226 226 230 233 233 231 231 222 225 227 233 235 234 231 226 232 236 241 234 237 231 232 234 232 234 231 233 230 226 225 223 221 226 220 222 227 224 233 245 248 260 192 241 220 204 211 196 196 204 216 215 209 206 213 215 215 195 201 214 219 219 218 215 214 210 207 205 204 203 203 207 210 211 213 216 216 217 217 219 219
217 224 227 227 226 225 228 229 231 233 230 232 225 225 230 238 237 237 238 233 238 245 241 240 233 231 229 229 229 229 225 229 227 226 224 222 220 224 221 224 226 219 219 229 242 257 258 218 247 207 199 191 206 205 214 215 211 206 209 217 208 206 205 210 214 220 222 217 214 209 205 204 204 203 205 209 210 215 218 220 220 219 219 219 221
209 226 229 228 224 226 230 233 234 233 235 234 226 223 231 238 241 238 240 237 239 242 234 236 230 232 235 237 238 236 229 233 231 232 226 227 223 223 223 220 225 223 214 224 239 249 264 231 240 164 184 190 221 192 208 206 214 196 201 202 202 200 203 198 202 205 214 215 213 211 207 205 206 203 204 207 209 215 220 222 223 222 222 223 222
223 225 232 226 225 227 233 236 236 234 232 231 226 225 231 235 238 238 237 237 238 239 236 236 233 226 228 230 233 231 227 232 231 233 227 229 222 225 226 220 227 225 219 220 233 247 253 258 234 228 181 191 205 201 202 204 195 185 190 195 195 194 201 202 204 207 208 205 204 204 200 201 202 202 208 212 217 220 223 224 224 224 225 226 222
241 233 228 232 228 229 235 238 235 235 233 231 229 229 234 234 238 240 238 238 239 239 238 240 237 233 233 234 234 228 227 230 230 230 228 226 224 225 226 222 223 225 221 222 226 236 252 262 244 205 196 187 211 187 177 179 181 183 190 185 179 188 194 197 199 201 208 205 203 198 198 196 195 199 205 214 220 224 225 226 226 227 226 226 226
251 248 243 226 237 235 236 238 239 235 235 233 233 236 238 239 241 243 242 242 241 242 241 240 237 236 236 235 237 229 227 233 234 231 229 226 225 226 227 223 224 226 224 224 228 228 242 248 254 199 180 205 206 191 178 177 188 192 189 197 196 198 204 206 196 198 204 206 201 198 196 194 193 198 210 219 226 229 229 228 227 227 227 228 230
262 246 241 234 229 237 238 242 240 242 237 233 236 239 241 241 243 244 245 244 244 244 244 243 239 235 238 240 238 231 230 231 235 232 231 231 227 229 229 228 226 224 227 227 227 232 235 246 247 245 173 192 187 206 193 188 180 188 195 203 202 205 192 182 185 175 190 196 198 199 194 192 191 202 213 223 228 230 230 229 228 227 228 228 226
257 260 246 244 242 237 246 246 245 245 243 237 240 243 245 246 246 246 246 246 247 246 247 246 244 242 239 240 240 234 235 234 237 235 232 234 228 231 228 229 228 225 230 226 224 228 232 240 245 240 235 213 196 196 188 195 202 193 192 191 211 206 193 184 153 174 177 169 198 194 187 175 176 192 221 229 230 230 229 228 226 227 226 223 222
248 251 253 251 254 239 246 246 248 245 246 247 246 246 246 245 247 249 248 250 250 250 249 247 246 245 243 243 240 237 236 237 236 239 231 237 231 236 229 225 229 225 230 227 224 226 230 234 237 238 228 220 191 184 147 177 200 217 208 199 203 197 198 194 197 172 172 166 169 177 188 185 191 207 218 228 233 232 230 229 228 226 225 219 224
249 250 254 255 260 260 253 248 252 244 244 247 246 246 247 248 246 250 249 250 251 254 253 250 247 245 246 244 245 242 237 237 234 235 233 230 231 238 233 219 228 225 229 227 226 225 230 233 239 232 228 221 205 164 182 195 199 206 195 194 214 198 190 179 197 188 179 168 165 169 188 177 173 193 191 200 215 229 236 233 229 227 221 222 215
256 254 256 253 251 257 262 258 249 245 245 247 246 244 244 248 251 252 253 252 251 252 255 256 252 246 246 245 245 241 240 239 238 239 240 240 238 238 240 224 226 227 226 227 226 224 226 230 232 225 227 228 211 202 199 208 193 148 168 190 202 189 143 179 160 210 167 172 171 185 186 171 170 179 177 199 200 212 215 222 219 215 212 200 189
260 262 255 260 254 251 252 258 260 252 248 249 249 248 250 249 250 255 255 258 255 254 255 255 258 254 250 247 249 245 241 242 243 242 241 240 240 241 241 238 232 225 228 228 231 223 224 230 231 226 229 234 225 205 212 210 193 201 193 190 192 179 185 171 200 175 191 173 178 169 190 176 169 189 190 192 187 191 203 207 215 212 202 196 196
282 263 263 260 263 260 254 252 254 256 258 254 253 253 252 251 248 251 256 258 259 257 257 258 259 259 258 255 251 248 243 240 240 241 240 240 240 241 242 241 240 237 230 227 231 230 225 229 232 229 228 230 232 210 214 199 204 196 200 190 193 194 195 202 207 199 177 157 168 190 207 183 184 195 194 196 183 182 197 207 211 208 198 200 200
311 298 283 276 270 264 253 257 257 254 256 255 255 255 254 253 252 250 256 256 258 259 257 258 260 260 260 259 260 250 248 241 239 241 245 244 239 240 244 245 245 242 241 238 235 234 231 229 233 237 227 228 228 225 207 203 189 194 190 196 203 203 203 206 208 194 143 178 180 196 202 191 172 187 196 183 171 177 198 210 208 205 200 200 202
303 295 288 280 275 270 261 259 261 259 257 257 253 254 255 255 254 253 256 257 258 259 258 257 258 258 256 258 262 260 247 239 237 237 240 244 245 244 243 241 243 244 242 241 241 237 234 234 235 240 237 219 227 229 204 180 175 194 194 205 200 201 205 212 207 192 123 168 185 182 195 191 178 183 198 171 153 172 186 198 204 204 202 200 200
295 290 290 290 280 274 270 262 263 262 257 257 255 255 256 257 257 256 257 257 258 259 257 254 255 255 257 256 256 260 257 246 238 233 240 243 246 248 247 246 243 242 239 237 236 236 235 235 237 242 245 232 231 223 172 185 196 202 197 199 194 199 195 76 48 78 153 188 185 176 197 182 171 187 190 151 145 168 168 198 201 199 199 196 195
279 278 278 267 273 274 269 268 267 265 261 251 254 254 254 257 257 256 254 254 256 258 257 256 253 254 254 253 256 258 258 254 245 237 239 244 247 250 250 251 252 248 245 237 232 232 233 233 236 240 242 238 224 212 194 194 201 199 194 183 181 181 170 177 178 155 167 186 187 188 186 170 172 182 169 112 141 162 173 185 203 197 195 194 193
284 280 272 267 263 265 267 261 260 265 266 252 250 251 250 252 254 253 252 253 255 256 259 259 256 256 253 250 251 256 258 257 249 243 245 243 249 252 253 255 255 254 253 244 233 236 237 237 239 240 241 241 235 224 200 193 189 180 171 179 198 182 171 189 189 171 181 166 196 201 172 144 171 157 110 142 157 167 171 184 194 200 194 194 194
284 274 276 276 266 257 261 261 251 260 265 248 241 243 242 243 241 246 248 252 256 258 264 262 259 257 255 247 245 252 256 258 252 244 244 242 248 252 255 257 259 258 256 247 240 237 235 237 238 238 238 236 222 211 200 195 185 175 182 199 192 173 194 193 179 175 167 180 191 174 162 164 130 135 115 98 74 305 175 160 172 202 200 197 200
277 281 276 275 275 262 249 254 250 247 259 249 231 239 239 238 239 242 246 251 259 260 263 268 265 259 260 254 245 244 251 257 256 253 249 243 246 250 252 253 257 259 256 247 241 235 232 234 237 235 235 229 224 216 209 195 183 190 195 197 173 185 190 187 168 152 149 219 196 191 167 152 141 174 139 132 167 171 124 158 159 164 152 93 202